Starlink 30196

operational
NORAD ID: 57448 Int'l Des: 2023-105 Owner: SPXS Country: US Constellation: starlink
LEOCIRCULAR

Über Starlink 30196

Beschreibung wird geladen...

Live-Position

3D-Globus wird geladen...

Nächste Überflüge

Höhenverlauf

Altitude vs Time

uPlot chart will show altitude changes over time

Zweizeiliger Elementsatz

1 57448U 23105U 26035.18525988 -.00000200 00000-0 26965-6 0 9998
2 57448 43.0042 83.4385 0001361 271.6350 88.4336 15.02535662140360
Epoch: 4. Feb. 2026 • Age: 9 hours

Aktueller Status

Höhe 571.2 km
Geschwindigkeit 7.58 km/s
Subsatellitenpunkt -42.47°S, 0.4°E
Startdatum 24. Juli 2023
Alter 2.5 years
Typ internet

Technische Details

Klassifizierung Payload
Masse 730.00 kg
Trockenmasse 700.00 kg
Gesamtmasse 730.00 kg
Länge 0.30 m
Durchmesser 4.10 m
Spannweite 29.00 m
Form Box + pan
Hersteller SPXS
Bus-Typ Starlink V2M
Phasenstatus In Orbit
Besitzer/Staat SPXS/US

Große Konstellationen

Loading constellations...